Location: Boiro
(42.6475°N, 8.8834°W)
Time: 15:28:55
(UTC+02:00)

Explorer 7 - Pass Details

Date: 28 June 2022
Orbit: 482 x 668 km, 50.3° (Epoch: 15 August)

Event Time Altitude Azimuth Distance (km) Brightness Sun altitude
Rises 06:12:51 0° 297° (WNW) 2,940 10.3 -7.7°
Reaches altitude 10° 06:15:23 10° 305° (NW) 2,003 9.5 -7.4°
Maximum altitude 06:19:40 38° 14° (NNE) 931 8.6 -6.8°
Drops below altitude 10° 06:23:44 10° 83° (E) 1,890 10.6 -6.2°
Sets 06:26:03 0° 92° (E) 2,752 11.2 -5.9°
